ONEWEB-0185, 48220

Orbit data source: Space-Track

ONEWEB-0185, 48220 is a payload satellite owned by One Web (NAA) (UK) in LEO that was launched on Sun, 25 Apr 2021 UTC via a SOYUZ-2-1B launch vehicle from the Vostochny Cosmodrome (VOSTO). Payload-class satellites include a variety of spacecraft equipped with specific instruments for various scientific and technological missions. These include communications satellites like Starlink; space stations such as the ISS; scientific satellites like the Hubble; Earth observation satellites from companies like Planet Labs, Umbra, and HawkEye 360; GPS; miniature CubeSats for education and research; and military/defense satellites.

Loading next visibility...
Identifier
48220, 2021-031L
Orbit
LEO
Country
Flag of UKUK
Related business
Manufacturer
One Web
Mission
Operational Commercial Communications
Bus & Motor
ARROW, Unknown motor
Mass
148 kg wet, ~140 kg dry
Launch date (UTC)
2021-04-25 (5 years ago)
Launch vehicle
SOYUZ-2-1B
Launch site
Vostochny Cosmodrome (VOSTO)
Object type
Payload
Rocket body
Debris
Shape & HBR
Trap Box + 2 Pan, 6.7 m
Radar Cross Section
3.464 m², Large (>1 m²)

Expand to show TLE details & history
Last TLE update: 2 days ago

TLE from 2 days ago
0 ONEWEB-0185
1 48220U 21031L   26171.33866627 -.00000026  00000-0 -10488-3 0  9995
2 48220  87.8976 289.0702 0002380  99.9432 260.1966 13.14502643248665
Epoch: 2026-06-20T08:07Z
TLE epoch observation values (Epoch: 2026-06-20T08:07:40.765Z)
Latitude
-0.00008°
Longitude
-101.40437°
Altitude
1,208.993 km
Speed
7.249 km/s
True Right ascension
19h 16m 16s
True Declination
0° 00' 00"
Sunlit
Object was in full shadow at epoch
Visualization orbit readout
Latitude
Unknown
Longitude
Unknown
Altitude
Unknown
Speed
Unknown
Apparent Right ascension
Unknown
Apparent Declination
Unknown
Sunlit
N/A
Visualization observer readout
Local Sidereal Time
21:41:35
Azimuth
Unknown
Elevation
Unknown
Doppler factor
Unknown
Orbital elements
Apogee altitude
1,204.709 km
Perigee altitude
1,201.1 km
Semi-major axis
7,581.042 km
Eccentricity
0.00024
Inclination
87.8976°
RAAN
289.0702°
Arg. of periapsis
99.9432°
True anomaly
260.16973°
Mean anomaly
260.1966°
Eccentric anomaly
260.18316°
Mean motion
3.28814 °/min
Orbital period
109.48 mins
BSTAR
-0.00010488
Loading maneuver chart data...
Computing Atmospheric mass density...
Loading historical data...
Loading historical data...
Loading historical data...
Loading historical data...
Loading historical data...
Loading historical data...
Loading historical data...

Documentation

Showing up to 5 results
|